Simultaneous Nadir Overpasses (SNOs) Predictions

Prediction of SNOs between GOES-16 and NOAA-19 Satellite Orbit:

Table of predicted SNOs for the next 14.0 days since TLE Epoch: 3/16/2017
Index Date Time (GOES-16) GOES-16 Lat,Lon NOAA-19 Lat,Lon Distance(km) Time Diff (sec)
1 03/17/2017 20:54:19 -0.00, -89.48 0.69, -86.53 337.94 80
2 03/20/2017 09:15:52 0.01, -89.54 0.51, -91.65 242.09 80
3 03/21/2017 09:01:47 0.00, -89.55 -0.16, -88.88 76.87 80
4 03/22/2017 08:50:20 0.00, -89.56 -0.77, -86.09 395.89 80
5 03/24/2017 21:12:06 -0.00, -89.58 -0.39, -91.28 193.91 80
6 03/25/2017 21:03:20 -0.00, -89.59 0.26, -88.50 125.41 80
7 03/26/2017 20:51:55 -0.00, -89.61 0.92, -85.72 444.80 80
8 03/28/2017 09:24:51 0.00, -89.66 0.92, -93.62 451.65 80
9 03/29/2017 09:13:26 0.00, -89.68 0.25, -90.84 132.21 80
10 03/30/2017 08:59:19 0.00, -89.70 -0.36, -88.05 187.26 80




NCC Satellite Simultaneous Nadir Overpasses (SNOs) Prediction Service
